Home   Weather   Samarkand   Past weeks
Flag for Uzbekistan

Past Weather in Samarkand, Uzbekistan — Yesterday and Last 2 Weeks

Now
75 °F

Clear.


Feels Like: 76 °F
Forecast: 70 / 44 °F
Wind: 7 mph from North

Location: Samarkand

Current Time: Oct 17, 2019 at 4:15:14 pm

Latest Report: Oct 17, 2019 at 3:30 pm


Visibility: N/A

Pressure: 30.18 "Hg (27.78 "Hg at 721m altitude)

Humidity: 21%

Dew Point: 32 °F

Location of SamarkandLocation

Past Weather in Samarkand — Graph

°F

Samarkand Temperature Yesterday

Maximum temperature yesterday: 77 °F (at 3:30 pm)
Minimum temperature yesterday: 50 °F (at 6:30 am)
Average temperature yesterday: 62 °F

High & Low Weather Summary for the Past Weeks

 TemperatureHumidityPressure
High81 °F (Oct 8, 3:00 pm)100% (Oct 5, 12:00 am)30.45 "Hg (Oct 5, 12:00 am)
Low43 °F (Oct 15, 3:00 am)17% (Oct 10, 2:30 pm)29.89 "Hg (Oct 7, 2:30 am)
Average62 °F48%30.11 "Hg
* Reported Oct 2 3:00 pm — Oct 17 3:00 pm, Samarkand. Weather by CustomWeather, © 2019

Note: Actual official high and low records may vary slightly from our data, if they occured in-between our weather recording intervals... More about our weather records

Advertising

Samarkand Weather History for the Previous 24 Hours

Scroll right to see more
 ConditionsComfort  
Time TempWeatherWind HumidityBarometerVisibility
3:00 pm
Thu, Oct 17
75 °FClear.5 mph21%30.18 "HgN/A
2:30 pm75 °FClear.7 mph22%30.18 "HgN/A
2:00 pm75 °FClear.7 mph24%30.18 "HgN/A
1:30 pm75 °FClear.5 mph22%30.18 "HgN/A
1:00 pm75 °FClear.5 mph22%30.21 "HgN/A
12:30 pm75 °FClear.2 mph22%30.21 "HgN/A
12:00 pm73 °FClear.7 mph25%30.21 "HgN/A
11:30 am72 °FClear.9 mph27%30.21 "HgN/A
11:00 am70 °FClear.9 mph31%30.21 "HgN/A
10:30 am68 °FClear.7 mph35%30.21 "HgN/A
10:00 am66 °FClear.7 mph37%30.21 "HgN/A
9:30 am63 °FClear.7 mph42%30.24 "HgN/A
9:00 am61 °FClear.9 mph42%30.21 "HgN/A
8:30 am59 °FClear.9 mph45%30.21 "HgN/A
8:00 am57 °FClear.12 mph48%30.18 "HgN/A
7:30 am55 °FClear.9 mph51%30.18 "HgN/A
6:30 am54 °FClear.9 mph54%30.18 "HgN/A
6:00 am52 °FClear.7 mph58%30.18 "Hg4 mi
5:00 am52 °FClear.7 mph62%30.15 "Hg4 mi
4:30 am50 °FClear.2 mph67%30.15 "Hg4 mi
4:00 am54 °FClear.7 mph58%30.15 "Hg4 mi
3:30 am54 °FClear.7 mph58%30.15 "Hg4 mi
3:00 am54 °FClear.9 mph58%30.15 "Hg4 mi
2:30 am54 °FClear.9 mph58%30.15 "Hg4 mi
2:00 am54 °FClear.7 mph58%30.15 "Hg4 mi
1:30 am54 °FClear.2 mph58%30.15 "Hg4 mi
1:00 am55 °FClear.7 mph55%30.15 "Hg4 mi
12:30 am55 °FClear.7 mph55%30.15 "Hg4 mi
11:30 pm
Wed, Oct 16
57 °FClear.7 mph51%30.12 "Hg4 mi
11:00 pm59 °FClear.7 mph48%30.15 "Hg4 mi
10:30 pm59 °FClear.7 mph48%30.15 "Hg4 mi
10:00 pm59 °FClear.7 mph48%30.15 "Hg4 mi
9:30 pm59 °FClear.7 mph48%30.15 "Hg4 mi
9:00 pm59 °FClear.7 mph48%30.12 "Hg4 mi
8:30 pm59 °FClear.7 mph48%30.12 "Hg4 mi
8:00 pm61 °FClear.7 mph45%30.12 "Hg4 mi
7:30 pm63 °FClear.5 mph42%30.12 "Hg4 mi
7:00 pm63 °FClear.9 mph42%30.12 "Hg4 mi
6:30 pm64 °FClear.9 mph40%30.12 "Hg4 mi
6:00 pm66 °FClear.9 mph37%30.12 "HgN/A
5:30 pm68 °FClear.7 mph35%30.12 "HgN/A
5:00 pm72 °FClear.12 mph31%30.09 "HgN/A
4:30 pm75 °FClear.5 mph22%30.09 "HgN/A
4:00 pm75 °FClear.2 mph24%30.09 "HgN/A
Weather by CustomWeather, © 2019

See weather overview